Weather History for KCAE - August, 2013

Change the Weather History Date:

Thursday, August 22, 2013

  Actual Average Record
Temperature  
Mean Temperature 83 °F 80 °F  
Max Temperature 93 °F 90 °F 106 °F (1983)
Min Temperature 72 °F 71 °F 58 °F (1998)
Degree Days  
Heating Degree Days 0 0  
Month to date heating degree days 0 0  
Since 1 June heating degree days 0 1  
Since 1 July heating degree days 0 0  
Cooling Degree Days 18 15  
Month to date cooling degree days 328 361  
Year to date cooling degree days 1570 1638  
Since 1 June cooling degree days 1250 1317  
Growing Degree Days 32 (Base 50)    
Moisture  
Dew Point 72 °F    
Average Humidity 76    
Maximum Humidity 100    
Minimum Humidity 52    
Precipitation  
Precipitation T in 0.16 in 2.18 in (1979)
Month to date precipitation 7.51 3.90  
Year to date precipitation 43.51 30.56  
Sea Level Pressure  
Sea Level Pressure 30.10 in    
Wind  
Wind Speed 3 mph (WSW)    
Max Wind Speed 14 mph    
Max Gust Speed 25 mph    
Visibility 10 miles    
Events Rain , Thunderstorm    
T = Trace of Precipitation, MM = Missing Value Source: NWS Daily Summary

Daily Weather History Graph

Daily Weather History Graph

Search for Another Location

Airport or City:

Trip Planner

Search our weather history database for the weather conditions in past years. The results will help you decide how hot, cold, wet, or windy it might be!

Date:

Astronomy

Aug. 22, 2013 Rise Set
Actual Time 6:51 AM EDT 8:02 PM EDT
Civil Twilight 6:25 AM EDT 8:28 PM EDT
Nautical Twilight 5:54 AM EDT 8:59 PM EDT
Astronomical Twilight 5:22 AM EDT 9:31 PM EDT
Moon 8:55 PM EDT (8/22) 8:30 AM EDT (8/22)
Length of Visible Light 14h 03m
Length of Day
13h 11m
Waning Gibbous, 97% of the Moon is Illuminated
Aug 22
Waning Gibbous
Aug 28
Last Quarter
Sep 5
New
Sep 12
First Quarter
Sep 19
Full

Hourly Weather History & Observations

Time (EDT) Temp. Heat Index Dew Point Humidity Pressure Visibility Wind Dir Wind Speed Gust Speed Precip Events Conditions
12:56 AM 75.0 °F - 73.9 °F 96% 30.15 in 8.0 mi Calm Calm - N/A   Partly Cloudy
1:56 AM 75.0 °F - 73.9 °F 96% 30.14 in 10.0 mi Calm Calm - N/A   Partly Cloudy
2:56 AM 75.0 °F - 73.9 °F 96% 30.14 in 10.0 mi Calm Calm - N/A   Partly Cloudy
3:39 AM 73.4 °F - 71.6 °F 94% 30.15 in 10.0 mi Calm Calm - N/A   Mostly Cloudy
3:56 AM 73.0 °F - 72.0 °F 96% 30.14 in 10.0 mi Calm Calm - N/A   Mostly Cloudy
4:56 AM 73.0 °F - 72.0 °F 96% 30.13 in 10.0 mi Calm Calm - N/A   Mostly Cloudy
5:56 AM 73.0 °F - 72.0 °F 96% 30.12 in 10.0 mi SSW 3.5 mph - N/A   Mostly Cloudy
6:56 AM 72.0 °F - 72.0 °F 100% 30.14 in 10.0 mi SW 3.5 mph - N/A   Mostly Cloudy
7:56 AM 73.0 °F - 72.0 °F 96% 30.16 in 6.0 mi Calm Calm - N/A   Mostly Cloudy
8:56 AM 77.0 °F - 73.0 °F 88% 30.15 in 10.0 mi WSW 4.6 mph - N/A   Scattered Clouds
9:56 AM 82.0 °F 87.9 °F 73.9 °F 76% 30.15 in 10.0 mi West 4.6 mph - N/A   Scattered Clouds
10:56 AM 84.9 °F 91.4 °F 73.0 °F 67% 30.14 in 10.0 mi WSW 4.6 mph - N/A   Scattered Clouds
11:56 AM 87.1 °F 94.5 °F 73.0 °F 63% 30.14 in 10.0 mi West 4.6 mph - N/A   Scattered Clouds
12:56 PM 89.1 °F 96.0 °F 72.0 °F 57% 30.12 in 10.0 mi Calm Calm - N/A   Scattered Clouds
1:56 PM 90.0 °F 96.9 °F 72.0 °F 55% 30.09 in 10.0 mi Calm Calm - N/A   Mostly Cloudy
2:56 PM 91.0 °F 99.3 °F 73.0 °F 55% 30.06 in 10.0 mi WNW 8.1 mph - N/A   Scattered Clouds
3:56 PM 91.0 °F 99.3 °F 73.0 °F 55% 30.03 in 10.0 mi Calm Calm - N/A   Scattered Clouds
4:56 PM 91.0 °F 98.2 °F 72.0 °F 53% 30.02 in 10.0 mi Calm Calm - N/A   Scattered Clouds
5:56 PM 90.0 °F 96.9 °F 72.0 °F 55% 30.01 in 10.0 mi NW 6.9 mph - N/A   Mostly Cloudy
6:45 PM 84.2 °F 89.6 °F 71.6 °F 66% 30.02 in 10.0 mi ESE 5.8 mph - N/A Thunderstorm Thunderstorm
6:56 PM 82.9 °F 87.5 °F 71.1 °F 67% 30.02 in 10.0 mi ESE 5.8 mph - N/A Thunderstorm Thunderstorm
7:56 PM 77.0 °F - 71.1 °F 82% 30.05 in 10.0 mi SE 8.1 mph - 0.00 in Rain Light Rain
8:56 PM 75.9 °F - 71.1 °F 85% 30.06 in 10.0 mi Calm Calm - 0.00 in Rain Light Rain
9:56 PM 77.0 °F - 73.0 °F 88% 30.05 in 10.0 mi Calm Calm - 0.00 in   Mostly Cloudy
10:56 PM 75.0 °F - 72.0 °F 90% 30.06 in 10.0 mi Calm Calm - N/A   Scattered Clouds
11:56 PM 75.0 °F - 73.0 °F 94% 30.04 in 10.0 mi NNE 3.5 mph - N/A   Partly Cloudy